Location: Lake Zurich
(42.1970°N, 88.0930°W)
Time: 03:42:27
(UTC-05:00)

Amateur Radio Satellites - All Passes

Search period start: 21 October 2014 03:12
Search period end: 22 October 2014 03:12
Location: Lake Zurich, 42.1970°N, 88.0930°W

Satellite Date Start Highest point End Downlink Frequencies (MHz)
Time Altitude Azimuth
JAS-1B 21 Oct 03:18:03 03:24:20 65° 288° (WNW) 03:31:49 435.800 - 435.900 CW/SSB
Gurwin Techsat 1B 21 Oct 03:18:16 03:23:24 47° 99° (E) 03:28:29 435.225 FM
Uribyol 2 21 Oct 03:18:46 03:24:01 87° 285° (WNW) 03:29:13 436.500 FM
ITAMSAT 1 21 Oct 03:23:40 03:28:56 84° 285° (WNW) 03:34:09 435.822 SSB
PCSat 21 Oct 03:27:38 03:29:10 11° 102° (ESE) 03:30:42 145.825 MHz
TMSAT-1 21 Oct 03:32:20 03:37:28 47° 99° (E) 03:42:33 436.925 FM
RS-15 21 Oct 03:32:48 03:40:48 22° 354° (N) 03:48:56 29.354 - 29.394 USB, Beacon 29.352 USB
AO-Echo 21 Oct 03:36:40 03:41:45 49° 289° (WNW) 03:46:51 ?
Oscar 19 21 Oct 04:02:45 04:05:58 17° 299° (WNW) 04:09:10 437.125 CW, 437.150 USB
AO-27 21 Oct 04:08:36 04:13:16 34° 293° (WNW) 04:17:55 436.795 MHz FM
OPAL 21 Oct 04:12:17 04:16:44 30° 64° (ENE) 04:21:09 ?
AO-7 21 Oct 04:32:59 04:40:40 39° 98° (E) 04:48:18 29.400 - 29.500 MHz
Sapphire 21 Oct 04:43:29 04:48:42 51° 114° (ESE) 04:53:57 437.095 MHz 1200 baud AX-25 AFSK
Gurwin Techsat 1B 21 Oct 04:58:53 05:03:03 24° 296° (WNW) 05:07:13 435.225 FM
Uribyol 2 21 Oct 05:00:36 05:02:41 12° 303° (WNW) 05:04:45 436.500 FM
ITAMSAT 1 21 Oct 05:05:41 05:07:35 12° 303° (WNW) 05:09:29 435.822 SSB
PCSat 21 Oct 05:06:17 05:11:42 86° 119° (ESE) 05:17:09 145.825 MHz
JAS-1B 21 Oct 05:12:25 05:14:04 11° 305° (NW) 05:15:46 435.800 - 435.900 CW/SSB
TMSAT-1 21 Oct 05:12:55 05:17:04 24° 296° (WNW) 05:21:13 436.925 FM
Uosat F 21 Oct 05:17:41 05:22:45 68° 102° (ESE) 05:27:46 435.120 FM
RS-15 21 Oct 05:48:28 05:58:01 32° 30° (NNE) 06:07:49 29.354 - 29.394 USB, Beacon 29.352 USB
STRAND 1 21 Oct 05:50:14 05:54:20 25° 64° (ENE) 05:58:28 ?
OPAL 21 Oct 05:50:47 05:55:30 35° 260° (W) 06:00:11 ?
Hamsat 21 Oct 06:01:22 06:04:53 26° 95° (E) 06:08:23 145.90 MHz
JAS-2 21 Oct 06:04:57 06:12:29 56° 99° (E) 06:20:09 435.800 - 435.900 CW/SSB, 435.910 FM
AO-7 21 Oct 06:25:41 06:33:33 49° 297° (WNW) 06:41:26 29.400 - 29.500 MHz
Sapphire 21 Oct 06:27:51 06:32:24 27° 313° (NW) 06:36:58 437.095 MHz 1200 baud AX-25 AFSK
PCSat 21 Oct 06:52:10 06:55:50 18° 319° (NW) 06:59:31 145.825 MHz
Uosat F 21 Oct 06:57:56 07:00:58 16° 300° (WNW) 07:03:59 435.120 FM
SO-67 21 Oct 07:00:22 07:01:58 13° 92° (E) 07:03:33 435.3500 MHz FM
STRAND 1 21 Oct 07:28:26 07:33:17 42° 261° (W) 07:38:10 ?
Hamsat 21 Oct 07:37:15 07:40:46 27° 291° (WNW) 07:44:18 145.90 MHz
JAS-2 21 Oct 07:50:27 07:57:08 35° 296° (WNW) 08:04:00 435.800 - 435.900 CW/SSB, 435.910 FM
RS-15 21 Oct 08:01:00 08:12:13 84° 57° (ENE) 08:23:55 29.354 - 29.394 USB, Beacon 29.352 USB
AO-7 21 Oct 08:21:47 08:24:21 12° 319° (NW) 08:26:55 29.400 - 29.500 MHz
SO-67 21 Oct 08:31:55 08:35:06 35° 287° (WNW) 08:38:16 435.3500 MHz FM
Saudisat 1A 21 Oct 08:41:55 08:46:14 63° 120° (ESE) 08:50:37 436.775 MHz
HO-68 21 Oct 09:36:54 09:43:56 53° 101° (E) 09:50:54 435.675 MHz FM
Oscar 11 21 Oct 09:38:23 09:41:07 16° 92° (E) 09:43:50 145.825 FM, Beacon 2401.500 USB
RS-15 21 Oct 10:14:42 10:23:20 27° 257° (WSW) 10:32:17 29.354 - 29.394 USB, Beacon 29.352 USB
ZACube-1 21 Oct 10:16:13 10:19:07 18° 92° (E) 10:21:58 437.345 MHz
Saudisat 1A 21 Oct 10:23:06 10:26:13 19° 319° (NW) 10:29:21 436.775 MHz
UKube-1 21 Oct 10:28:02 10:32:23 62° 102° (ESE) 10:36:42 145.840 MHz, 145.915 MHz
MaSat-1 21 Oct 10:30:20 10:32:59 54° 247° (WSW) 10:35:23 437.345 MHz
FUNcube-1 21 Oct 11:00:58 11:05:12 54° 100° (E) 11:09:18 145.950 - 145.970 MHz USB
Oscar 11 21 Oct 11:13:25 11:17:31 44° 288° (WNW) 11:21:36 145.825 FM, Beacon 2401.500 USB
HO-68 21 Oct 11:25:08 11:31:19 32° 299° (WNW) 11:37:29 435.675 MHz FM
Sapphire 21 Oct 11:50:23 11:51:17 10° 32° (NNE) 11:52:10 437.095 MHz 1200 baud AX-25 AFSK
ZACube-1 21 Oct 11:51:41 11:55:43 40° 289° (WNW) 11:59:39 437.345 MHz
Oscar 19 21 Oct 12:03:30 12:05:55 14° 59° (ENE) 12:08:21 437.125 CW, 437.150 USB
UKube-1 21 Oct 12:05:51 12:08:04 14° 298° (WNW) 12:10:16 145.840 MHz, 145.915 MHz
PCSat 21 Oct 12:11:48 12:14:53 15° 38° (NE) 12:17:58 145.825 MHz
JAS-1B 21 Oct 12:17:16 12:20:56 17° 59° (ENE) 12:24:29 435.800 - 435.900 CW/SSB
FUNcube-1 21 Oct 12:38:47 12:41:06 14° 297° (WNW) 12:43:23 145.950 - 145.970 MHz USB
Oscar 16 21 Oct 12:45:59 12:50:33 33° 67° (ENE) 12:55:07 437.025 USB, Beacon 2401.1428
KITSAT 1 21 Oct 12:46:23 12:54:11 55° 113° (ESE) 13:02:00 435.175 FM
Uribyol 2 21 Oct 12:59:38 13:03:21 20° 62° (ENE) 13:07:05 436.500 FM
ISS 21 Oct 13:02:48 13:03:32 11° 129° (SE) 13:04:17 145.800 FM
ITAMSAT 1 21 Oct 13:04:34 13:08:22 21° 62° (ENE) 13:12:11 435.822 SSB
Gurwin Techsat 1B 21 Oct 13:04:38 13:06:03 11° 56° (ENE) 13:07:27 435.225 FM
AO-Echo 21 Oct 13:12:19 13:16:24 28° 66° (ENE) 13:20:37 ?
TMSAT-1 21 Oct 13:18:31 13:19:49 11° 56° (ENE) 13:21:06 436.925 FM
SO-50 21 Oct 13:28:27 13:32:27 33° 115° (ESE) 13:36:33 436.795 FM
Sapphire 21 Oct 13:30:53 13:36:08 46° 54° (NE) 13:41:21 437.095 MHz 1200 baud AX-25 AFSK
Oscar 19 21 Oct 13:39:23 13:44:33 84° 256° (WSW) 13:49:44 437.125 CW, 437.150 USB
AO-7 21 Oct 13:45:47 13:49:19 13° 43° (NE) 13:52:51 29.400 - 29.500 MHz
AO-27 21 Oct 13:47:39 13:52:39 50° 70° (ENE) 13:57:42 436.795 MHz FM
PCSat 21 Oct 13:53:48 13:59:15 75° 59° (ENE) 14:04:40 145.825 MHz
JAS-1B 21 Oct 14:04:58 14:11:07 69° 257° (WSW) 14:16:48 435.800 - 435.900 CW/SSB
Oscar 16 21 Oct 14:25:17 14:29:51 31° 264° (W) 14:34:27 437.025 USB, Beacon 2401.1428
ISS 21 Oct 14:36:24 14:39:44 88° 146° (SE) 14:43:05 145.800 FM
Uribyol 2 21 Oct 14:37:17 14:42:23 56° 259° (W) 14:47:33 436.500 FM
Oscar 10/S400 21 Oct 14:38:18 14:55:38 42° 155° (SSE) 15:23:00 145.825 - 145.975 CW/USB, Beacon 145.810 USB
Gurwin Techsat 1B 21 Oct 14:39:48 14:45:06 77° 74° (ENE) 14:50:26 435.225 FM
ITAMSAT 1 21 Oct 14:42:23 14:47:27 53° 260° (W) 14:52:35 435.822 SSB
KITSAT 1 21 Oct 14:42:23 14:49:51 39° 314° (NW) 14:57:21 435.175 FM
AO-Echo 21 Oct 14:50:40 14:55:02 34° 264° (W) 14:59:35 ?
TMSAT-1 21 Oct 14:53:32 14:58:48 76° 74° (ENE) 15:04:08 436.925 FM
Uosat F 21 Oct 14:56:04 14:58:21 13° 59° (ENE) 15:00:39 435.120 FM
SO-50 21 Oct 15:08:56 15:12:59 31° 313° (NW) 15:17:08 436.795 FM
UOSAT-12 21 Oct 15:12:25 15:16:35 34° 115° (ESE) 15:20:50 437.025 FM, 437.400 FM
Sapphire 21 Oct 15:14:51 15:19:17 26° 252° (WSW) 15:23:42 437.095 MHz 1200 baud AX-25 AFSK
AO-27 21 Oct 15:28:37 15:32:26 21° 267° (W) 15:36:18 436.795 MHz FM
Saudisat 1A 21 Oct 15:30:51 15:31:58 11° 33° (NNE) 15:33:05 436.775 MHz
AO-7 21 Oct 15:32:20 15:40:19 56° 65° (ENE) 15:48:20 29.400 - 29.500 MHz
PCSat 21 Oct 15:38:58 15:41:59 15° 256° (WSW) 15:45:00 145.825 MHz
ISS 21 Oct 16:14:05 16:16:47 22° 343° (NNW) 16:19:30 145.800 FM
JAS-2 21 Oct 16:19:24 16:23:55 23° 59° (ENE) 16:28:51 435.800 - 435.900 CW/SSB, 435.910 FM
Gurwin Techsat 1B 21 Oct 16:23:07 16:25:39 13° 271° (W) 16:28:11 435.225 FM
Uosat F 21 Oct 16:31:24 16:36:25 84° 256° (WSW) 16:41:29 435.120 FM
TMSAT-1 21 Oct 16:36:44 16:39:18 14° 271° (W) 16:41:53 436.925 FM
KITSAT 1 21 Oct 16:43:41 16:47:56 15° 341° (NNW) 16:52:13 435.175 FM
UOSAT-12 21 Oct 16:52:33 16:56:44 32° 313° (NW) 17:00:59 437.025 FM, 437.400 FM
Hamsat 21 Oct 16:55:36 16:58:45 21° 67° (ENE) 17:01:52 145.90 MHz
Saudisat 1A 21 Oct 17:08:06 17:12:29 58° 53° (NE) 17:16:50 436.775 MHz
AO-7 21 Oct 17:26:06 17:33:23 34° 263° (W) 17:40:44 29.400 - 29.500 MHz
ISS 21 Oct 17:52:09 17:54:22 16° 4° (N) 17:56:35 145.800 FM
OPAL 21 Oct 17:59:41 18:04:36 56° 103° (ESE) 18:09:26 ?
JAS-2 21 Oct 18:02:41 18:08:21 61° 260° (W) 18:14:49 435.800 - 435.900 CW/SSB, 435.910 FM
Hamsat 21 Oct 18:30:37 18:34:29 35° 263° (W) 18:38:21 145.90 MHz
KITSAT 1 21 Oct 18:43:58 18:47:36 13° 13° (NNE) 18:51:13 435.175 FM
Saudisat 1A 21 Oct 18:48:57 18:51:35 16° 250° (WSW) 18:54:13 436.775 MHz
SO-67 21 Oct 19:04:25 19:07:50 73° 77° (ENE) 19:11:16 435.3500 MHz FM
ISS 21 Oct 19:28:46 19:31:49 32° 24° (NNE) 19:34:52 145.800 FM
STRAND 1 21 Oct 19:38:10 19:43:18 63° 102° (ESE) 19:48:23 ?
OPAL 21 Oct 19:39:37 19:43:02 19° 300° (WNW) 19:46:26 ?
HO-68 21 Oct 20:05:59 20:12:35 42° 64° (ENE) 20:19:14 435.675 MHz FM
Oscar 11 21 Oct 20:34:35 20:37:03 15° 63° (ENE) 20:39:31 145.825 FM, Beacon 2401.500 USB
KITSAT 1 21 Oct 20:38:59 20:46:05 32° 41° (NE) 20:53:09 435.175 FM
ISS 21 Oct 21:05:25 21:08:34 39° 221° (SW) 21:11:42 145.800 FM
ZACube-1 21 Oct 21:13:16 21:16:21 18° 65° (ENE) 21:19:26 437.345 MHz
STRAND 1 21 Oct 21:18:37 21:21:58 18° 299° (WNW) 21:25:19 ?
UKube-1 21 Oct 21:23:46 21:28:01 57° 73° (ENE) 21:32:19 145.840 MHz, 145.915 MHz
HO-68 21 Oct 21:53:42 22:00:17 39° 262° (W) 22:06:56 435.675 MHz FM
FUNcube-1 21 Oct 21:57:17 22:01:42 48° 72° (ENE) 22:06:05 145.950 - 145.970 MHz USB
SO-50 21 Oct 21:59:02 22:03:33 38° 49° (NE) 22:08:06 436.795 FM
Oscar 11 21 Oct 22:08:33 22:12:47 54° 260° (W) 22:17:03 145.825 FM, Beacon 2401.500 USB
RS-15 21 Oct 22:25:06 22:35:33 52° 112° (ESE) 22:45:54 29.354 - 29.394 USB, Beacon 29.352 USB
KITSAT 1 21 Oct 22:34:07 22:42:10 71° 243° (WSW) 22:50:09 435.175 FM
ZACube-1 21 Oct 22:47:54 22:52:23 49° 261° (W) 22:56:49 437.345 MHz
UKube-1 21 Oct 23:02:28 23:04:34 13° 269° (W) 23:06:40 145.840 MHz, 145.915 MHz
FUNcube-1 21 Oct 23:35:16 23:38:18 17° 268° (W) 23:41:19 145.950 - 145.970 MHz USB
SO-50 21 Oct 23:39:48 23:44:00 30° 246° (WSW) 23:48:13 436.795 FM
UOSAT-12 21 Oct 23:41:16 23:45:39 36° 48° (NE) 23:49:58 437.025 FM, 437.400 FM
MaSat-1 22 Oct 00:07:46 00:11:36 33° 110° (ESE) 00:15:08 437.345 MHz
KITSAT 1 22 Oct 00:32:51 00:36:05 13° 262° (W) 00:39:20 435.175 FM
RS-15 22 Oct 00:37:22 00:47:56 51° 315° (NW) 00:58:33 29.354 - 29.394 USB, Beacon 29.352 USB
UOSAT-12 22 Oct 01:21:38 01:25:42 29° 246° (WSW) 01:29:41 437.025 FM, 437.400 FM
MaSat-1 22 Oct 01:44:02 01:47:22 23° 304° (NW) 01:50:27 437.345 MHz
JAS-1B 22 Oct 01:46:49 01:52:36 31° 97° (E) 01:59:15 435.800 - 435.900 CW/SSB
Oscar 19 22 Oct 01:50:51 01:55:27 33° 96° (E) 02:00:00 437.125 CW, 437.150 USB
AO-27 22 Oct 02:01:19 02:04:43 17° 91° (E) 02:08:05 436.795 MHz FM
Oscar 16 22 Oct 02:35:42 02:40:51 88° 104° (ESE) 02:45:58 437.025 USB, Beacon 2401.1428
Uribyol 2 22 Oct 02:49:30 02:54:35 50° 100° (E) 02:59:37 436.500 FM
ITAMSAT 1 22 Oct 02:54:39 02:59:47 53° 100° (E) 03:04:52 435.822 SSB
RS-15 22 Oct 02:55:30 03:03:45 23° 347° (NNW) 03:12:08 29.354 - 29.394 USB, Beacon 29.352 USB
Gurwin Techsat 1B 22 Oct 02:55:59 03:00:36 29° 95° (E) 03:05:11 435.225 FM
AO-Echo 22 Oct 02:56:24 03:01:44 74° 102° (ESE) 03:07:02 ?
